#datetime,building,power
2023-08-14T00:00:00,axn,33.88
2023-08-14T00:01:00,axn,33.90
2023-08-14T00:02:00,axn,33.80
2023-08-14T00:03:00,axn,34.23
2023-08-14T00:04:00,axn,33.76
2023-08-14T00:05:00,axn,33.82
2023-08-14T00:06:00,axn,48.26
2023-08-14T00:07:00,axn,47.86
2023-08-14T00:08:00,axn,47.20
2023-08-14T00:09:00,axn,46.92
2023-08-14T00:10:00,axn,46.66
2023-08-14T00:11:00,axn,32.71
2023-08-14T00:12:00,axn,32.66
2023-08-14T00:13:00,axn,32.60
2023-08-14T00:14:00,axn,32.73
2023-08-14T00:15:00,axn,33.31
2023-08-14T00:16:00,axn,32.59
2023-08-14T00:17:00,axn,32.73
2023-08-14T00:18:00,axn,32.73
2023-08-14T00:19:00,axn,32.65
2023-08-14T00:20:00,axn,32.83
2023-08-14T00:21:00,axn,32.80
2023-08-14T00:22:00,axn,32.91
2023-08-14T00:23:00,axn,32.95
2023-08-14T00:24:00,axn,33.09
2023-08-14T00:25:00,axn,33.51
2023-08-14T00:26:00,axn,33.24
2023-08-14T00:27:00,axn,33.04
2023-08-14T00:28:00,axn,32.92
2023-08-14T00:29:00,axn,33.06
2023-08-14T00:30:00,axn,33.01
2023-08-14T00:31:00,axn,33.22
2023-08-14T00:32:00,axn,33.34
2023-08-14T00:33:00,axn,36.19
2023-08-14T00:34:00,axn,35.76
2023-08-14T00:35:00,axn,35.53
2023-08-14T00:36:00,axn,32.68
2023-08-14T00:37:00,axn,33.00
2023-08-14T00:38:00,axn,32.55
2023-08-14T00:39:00,axn,32.67
2023-08-14T00:40:00,axn,32.52
2023-08-14T00:41:00,axn,32.74
2023-08-14T00:42:00,axn,32.59
2023-08-14T00:43:00,axn,32.81
2023-08-14T00:44:00,axn,33.68
2023-08-14T00:45:00,axn,32.81
2023-08-14T00:46:00,axn,32.91
2023-08-14T00:47:00,axn,32.91
2023-08-14T00:48:00,axn,32.86
2023-08-14T00:49:00,axn,32.97
2023-08-14T00:50:00,axn,32.96
2023-08-14T00:51:00,axn,32.77
2023-08-14T00:52:00,axn,32.81
2023-08-14T00:53:00,axn,32.93
2023-08-14T00:54:00,axn,33.29
2023-08-14T00:55:00,axn,32.79
2023-08-14T00:56:00,axn,32.61
2023-08-14T00:57:00,axn,32.61
2023-08-14T00:58:00,axn,32.64
2023-08-14T00:59:00,axn,32.74
2023-08-14T01:00:00,axn,32.82
2023-08-14T01:01:00,axn,33.30
2023-08-14T01:02:00,axn,32.84
2023-08-14T01:03:00,axn,32.84
2023-08-14T01:04:00,axn,33.00
2023-08-14T01:05:00,axn,33.14
2023-08-14T01:06:00,axn,33.28
2023-08-14T01:07:00,axn,33.36
2023-08-14T01:08:00,axn,33.21
2023-08-14T01:09:00,axn,33.04
2023-08-14T01:10:00,axn,33.12
2023-08-14T01:11:00,axn,33.06
2023-08-14T01:12:00,axn,33.27
2023-08-14T01:13:00,axn,33.25
2023-08-14T01:14:00,axn,33.16
2023-08-14T01:15:00,axn,33.45
2023-08-14T01:16:00,axn,33.30
2023-08-14T01:17:00,axn,33.72
2023-08-14T01:18:00,axn,33.60
2023-08-14T01:19:00,axn,33.61
2023-08-14T01:20:00,axn,33.61
2023-08-14T01:21:00,axn,33.54
2023-08-14T01:22:00,axn,33.38
2023-08-14T01:23:00,axn,33.16
2023-08-14T01:24:00,axn,33.49
2023-08-14T01:25:00,axn,33.40
2023-08-14T01:26:00,axn,34.03
2023-08-14T01:27:00,axn,33.82
2023-08-14T01:28:00,axn,34.06
2023-08-14T01:29:00,axn,33.69
2023-08-14T01:30:00,axn,34.11
2023-08-14T01:31:00,axn,33.98
2023-08-14T01:32:00,axn,33.84
2023-08-14T01:33:00,axn,33.66
2023-08-14T01:34:00,axn,33.50
2023-08-14T01:35:00,axn,33.66
2023-08-14T01:36:00,axn,33.68
2023-08-14T01:37:00,axn,33.72
2023-08-14T01:38:00,axn,33.67
2023-08-14T01:39:00,axn,33.67
2023-08-14T01:40:00,axn,33.99
2023-08-14T01:41:00,axn,33.76
2023-08-14T01:42:00,axn,33.71
2023-08-14T01:43:00,axn,33.83
2023-08-14T01:44:00,axn,33.89
2023-08-14T01:45:00,axn,33.68
2023-08-14T01:46:00,axn,33.75
2023-08-14T01:47:00,axn,33.65
2023-08-14T01:48:00,axn,33.62
2023-08-14T01:49:00,axn,33.68
2023-08-14T01:50:00,axn,36.73
2023-08-14T01:51:00,axn,33.73
2023-08-14T01:52:00,axn,33.55
2023-08-14T01:53:00,axn,33.68
2023-08-14T01:54:00,axn,33.59
2023-08-14T01:55:00,axn,33.55
2023-08-14T01:56:00,axn,33.52
2023-08-14T01:57:00,axn,33.45
2023-08-14T01:58:00,axn,33.49
2023-08-14T01:59:00,axn,33.70
2023-08-14T02:00:00,axn,33.48
2023-08-14T02:01:00,axn,33.41
2023-08-14T02:02:00,axn,33.52
2023-08-14T02:03:00,axn,33.56
2023-08-14T02:04:00,axn,33.67
2023-08-14T02:05:00,axn,33.86
2023-08-14T02:06:00,axn,33.67
2023-08-14T02:07:00,axn,33.59
2023-08-14T02:08:00,axn,33.21
2023-08-14T02:09:00,axn,33.09
2023-08-14T02:10:00,axn,33.13
2023-08-14T02:11:00,axn,33.53
2023-08-14T02:12:00,axn,33.23
2023-08-14T02:13:00,axn,33.15
2023-08-14T02:14:00,axn,33.51
2023-08-14T02:15:00,axn,33.14
2023-08-14T02:16:00,axn,33.08
2023-08-14T02:17:00,axn,33.02
2023-08-14T02:18:00,axn,33.01
2023-08-14T02:19:00,axn,33.05
2023-08-14T02:20:00,axn,33.09
2023-08-14T02:21:00,axn,32.52
2023-08-14T02:22:00,axn,32.62
2023-08-14T02:23:00,axn,33.10
2023-08-14T02:24:00,axn,32.88
2023-08-14T02:25:00,axn,33.11
2023-08-14T02:26:00,axn,33.10
2023-08-14T02:27:00,axn,32.77
2023-08-14T02:28:00,axn,32.98
2023-08-14T02:29:00,axn,33.05
2023-08-14T02:30:00,axn,33.41
2023-08-14T02:31:00,axn,33.17
2023-08-14T02:32:00,axn,33.12
2023-08-14T02:33:00,axn,33.09
2023-08-14T02:34:00,axn,33.04
2023-08-14T02:35:00,axn,32.95
2023-08-14T02:36:00,axn,33.00
2023-08-14T02:37:00,axn,33.07
2023-08-14T02:38:00,axn,33.27
2023-08-14T02:39:00,axn,33.43
2023-08-14T02:40:00,axn,33.28
2023-08-14T02:41:00,axn,33.23
2023-08-14T02:42:00,axn,33.36
2023-08-14T02:43:00,axn,33.39
2023-08-14T02:44:00,axn,33.37
2023-08-14T02:45:00,axn,33.41
2023-08-14T02:46:00,axn,33.46
2023-08-14T02:47:00,axn,34.10
2023-08-14T02:48:00,axn,33.50
2023-08-14T02:49:00,axn,33.35
2023-08-14T02:50:00,axn,33.36
2023-08-14T02:51:00,axn,33.48
2023-08-14T02:52:00,axn,33.41
2023-08-14T02:53:00,axn,33.43
2023-08-14T02:54:00,axn,33.48
2023-08-14T02:55:00,axn,44.02
2023-08-14T02:56:00,axn,33.30
2023-08-14T02:57:00,axn,33.22
2023-08-14T02:58:00,axn,33.14
2023-08-14T02:59:00,axn,33.21
2023-08-14T03:00:00,axn,33.58
2023-08-14T03:01:00,axn,33.15
2023-08-14T03:02:00,axn,33.30
2023-08-14T03:03:00,axn,33.34
2023-08-14T03:04:00,axn,32.81
2023-08-14T03:05:00,axn,33.01
2023-08-14T03:06:00,axn,32.73
2023-08-14T03:07:00,axn,32.81
2023-08-14T03:08:00,axn,32.84
2023-08-14T03:09:00,axn,32.84
2023-08-14T03:10:00,axn,32.84
2023-08-14T03:11:00,axn,32.83
2023-08-14T03:12:00,axn,32.78
2023-08-14T03:13:00,axn,33.03
2023-08-14T03:14:00,axn,32.69
2023-08-14T03:15:00,axn,32.63
2023-08-14T03:16:00,axn,32.76
2023-08-14T03:17:00,axn,32.85
2023-08-14T03:18:00,axn,33.26
2023-08-14T03:19:00,axn,32.95
2023-08-14T03:20:00,axn,32.94
2023-08-14T03:21:00,axn,33.13
2023-08-14T03:22:00,axn,33.17
2023-08-14T03:23:00,axn,33.26
2023-08-14T03:24:00,axn,33.24
2023-08-14T03:25:00,axn,33.15
2023-08-14T03:26:00,axn,33.07
2023-08-14T03:27:00,axn,33.10
2023-08-14T03:28:00,axn,33.01
2023-08-14T03:29:00,axn,32.98
2023-08-14T03:30:00,axn,33.06
2023-08-14T03:31:00,axn,33.07
2023-08-14T03:32:00,axn,33.07
2023-08-14T03:33:00,axn,33.02
2023-08-14T03:34:00,axn,33.22
2023-08-14T03:35:00,axn,32.96
2023-08-14T03:36:00,axn,32.86
2023-08-14T03:37:00,axn,33.02
2023-08-14T03:38:00,axn,33.01
2023-08-14T03:39:00,axn,33.42
2023-08-14T03:40:00,axn,33.00
2023-08-14T03:41:00,axn,32.96
2023-08-14T03:42:00,axn,32.73
2023-08-14T03:43:00,axn,32.73
2023-08-14T03:44:00,axn,32.75
2023-08-14T03:45:00,axn,32.74
2023-08-14T03:46:00,axn,32.80
2023-08-14T03:47:00,axn,33.16
2023-08-14T03:48:00,axn,33.62
2023-08-14T03:49:00,axn,33.30
2023-08-14T03:50:00,axn,33.01
2023-08-14T03:51:00,axn,33.13
2023-08-14T03:52:00,axn,32.84
2023-08-14T03:53:00,axn,33.23
2023-08-14T03:54:00,axn,33.14
2023-08-14T03:55:00,axn,33.12
2023-08-14T03:56:00,axn,33.06
2023-08-14T03:57:00,axn,33.13
2023-08-14T03:58:00,axn,33.10
2023-08-14T03:59:00,axn,33.77
2023-08-14T04:00:00,axn,33.12
2023-08-14T04:01:00,axn,33.20
2023-08-14T04:02:00,axn,33.12
2023-08-14T04:03:00,axn,33.84
2023-08-14T04:04:00,axn,33.39
2023-08-14T04:05:00,axn,33.49
2023-08-14T04:06:00,axn,33.37
2023-08-14T04:07:00,axn,33.34
2023-08-14T04:08:00,axn,33.61
2023-08-14T04:09:00,axn,33.38
2023-08-14T04:10:00,axn,33.38
2023-08-14T04:11:00,axn,39.15
2023-08-14T04:12:00,axn,39.04
2023-08-14T04:13:00,axn,38.92
2023-08-14T04:14:00,axn,33.11
2023-08-14T04:15:00,axn,33.00
2023-08-14T04:16:00,axn,35.99
2023-08-14T04:17:00,axn,36.22
2023-08-14T04:18:00,axn,36.00
2023-08-14T04:19:00,axn,33.16
2023-08-14T04:20:00,axn,33.00
2023-08-14T04:21:00,axn,33.37
2023-08-14T04:22:00,axn,32.98
2023-08-14T04:23:00,axn,33.09
2023-08-14T04:24:00,axn,33.69
2023-08-14T04:25:00,axn,33.97
2023-08-14T04:26:00,axn,33.75
2023-08-14T04:27:00,axn,33.70
2023-08-14T04:28:00,axn,33.60
2023-08-14T04:29:00,axn,33.58
2023-08-14T04:30:00,axn,33.60
2023-08-14T04:31:00,axn,33.78
2023-08-14T04:32:00,axn,34.02
2023-08-14T04:33:00,axn,33.73
2023-08-14T04:34:00,axn,33.82
2023-08-14T04:35:00,axn,33.75
2023-08-14T04:36:00,axn,33.79
2023-08-14T04:37:00,axn,33.70
2023-08-14T04:38:00,axn,33.68
2023-08-14T04:39:00,axn,33.70
2023-08-14T04:40:00,axn,33.65
2023-08-14T04:41:00,axn,33.59
2023-08-14T04:42:00,axn,33.68
2023-08-14T04:43:00,axn,33.44
2023-08-14T04:44:00,axn,33.78
2023-08-14T04:45:00,axn,33.61
2023-08-14T04:46:00,axn,33.62
2023-08-14T04:47:00,axn,33.62
2023-08-14T04:48:00,axn,33.77
2023-08-14T04:49:00,axn,33.65
2023-08-14T04:50:00,axn,33.80
2023-08-14T04:51:00,axn,34.00
2023-08-14T04:52:00,axn,33.54
2023-08-14T04:53:00,axn,33.59
2023-08-14T04:54:00,axn,34.61
2023-08-14T04:55:00,axn,33.70
2023-08-14T04:56:00,axn,33.74
2023-08-14T04:57:00,axn,33.49
2023-08-14T04:58:00,axn,36.87
2023-08-14T04:59:00,axn,33.81
2023-08-14T05:00:00,axn,33.89
2023-08-14T05:01:00,axn,33.19
2023-08-14T05:02:00,axn,32.92
2023-08-14T05:03:00,axn,32.92
2023-08-14T05:04:00,axn,33.24
2023-08-14T05:05:00,axn,33.45
2023-08-14T05:06:00,axn,33.23
2023-08-14T05:07:00,axn,33.61
2023-08-14T05:08:00,axn,33.13
2023-08-14T05:09:00,axn,33.10
2023-08-14T05:10:00,axn,33.64
2023-08-14T05:11:00,axn,33.01
2023-08-14T05:12:00,axn,33.08
2023-08-14T05:13:00,axn,32.87
2023-08-14T05:14:00,axn,33.14
2023-08-14T05:15:00,axn,33.04
2023-08-14T05:16:00,axn,33.06
2023-08-14T05:17:00,axn,33.11
2023-08-14T05:18:00,axn,33.19
2023-08-14T05:19:00,axn,33.20
2023-08-14T05:20:00,axn,33.47
2023-08-14T05:21:00,axn,32.95
2023-08-14T05:22:00,axn,50.19
2023-08-14T05:23:00,axn,32.79
2023-08-14T05:24:00,axn,32.98
2023-08-14T05:25:00,axn,32.78
2023-08-14T05:26:00,axn,37.46
2023-08-14T05:27:00,axn,37.35
2023-08-14T05:28:00,axn,37.66
2023-08-14T05:29:00,axn,33.54
2023-08-14T05:30:00,axn,33.53
2023-08-14T05:31:00,axn,36.66
2023-08-14T05:32:00,axn,52.78
2023-08-14T05:33:00,axn,36.56
2023-08-14T05:34:00,axn,36.81
2023-08-14T05:35:00,axn,36.19
2023-08-14T05:36:00,axn,36.70
2023-08-14T05:37:00,axn,36.69
2023-08-14T05:38:00,axn,36.76
2023-08-14T05:39:00,axn,36.69
2023-08-14T05:40:00,axn,36.79
2023-08-14T05:41:00,axn,37.17
2023-08-14T05:42:00,axn,37.37
2023-08-14T05:43:00,axn,37.32
2023-08-14T05:44:00,axn,37.47
2023-08-14T05:45:00,axn,37.40
2023-08-14T05:46:00,axn,37.36
2023-08-14T05:47:00,axn,37.81
2023-08-14T05:48:00,axn,39.26
2023-08-14T05:49:00,axn,56.12
2023-08-14T05:50:00,axn,39.25
2023-08-14T05:51:00,axn,39.15
2023-08-14T05:52:00,axn,38.14
2023-08-14T05:53:00,axn,38.22
2023-08-14T05:54:00,axn,38.21
2023-08-14T05:55:00,axn,37.48
2023-08-14T05:56:00,axn,37.90
2023-08-14T05:57:00,axn,37.76
2023-08-14T05:58:00,axn,38.14
2023-08-14T05:59:00,axn,38.06
2023-08-14T06:00:00,axn,38.01
2023-08-14T06:01:00,axn,55.13
2023-08-14T06:02:00,axn,38.53
2023-08-14T06:03:00,axn,38.14
2023-08-14T06:04:00,axn,38.13
2023-08-14T06:05:00,axn,37.27
2023-08-14T06:06:00,axn,36.98
2023-08-14T06:07:00,axn,37.04
2023-08-14T06:08:00,axn,36.94
2023-08-14T06:09:00,axn,37.26
2023-08-14T06:10:00,axn,52.11
2023-08-14T06:11:00,axn,36.28
2023-08-14T06:12:00,axn,36.36
2023-08-14T06:13:00,axn,36.40
2023-08-14T06:14:00,axn,36.31
2023-08-14T06:15:00,axn,36.18
2023-08-14T06:16:00,axn,36.15
2023-08-14T06:17:00,axn,41.80
2023-08-14T06:18:00,axn,35.84
2023-08-14T06:19:00,axn,35.94
2023-08-14T06:20:00,axn,35.72
2023-08-14T06:21:00,axn,35.75
2023-08-14T06:22:00,axn,35.88
2023-08-14T06:23:00,axn,35.80
2023-08-14T06:24:00,axn,35.92
2023-08-14T06:25:00,axn,35.74
2023-08-14T06:26:00,axn,35.75
2023-08-14T06:27:00,axn,35.77
2023-08-14T06:28:00,axn,33.89
2023-08-14T06:29:00,axn,33.80
2023-08-14T06:30:00,axn,33.74
2023-08-14T06:31:00,axn,33.40
2023-08-14T06:32:00,axn,33.49
2023-08-14T06:33:00,axn,33.41
2023-08-14T06:34:00,axn,33.35
2023-08-14T06:35:00,axn,33.21
2023-08-14T06:36:00,axn,33.04
2023-08-14T06:37:00,axn,33.12
2023-08-14T06:38:00,axn,32.97
2023-08-14T06:39:00,axn,33.11
2023-08-14T06:40:00,axn,33.33
2023-08-14T06:41:00,axn,33.18
2023-08-14T06:42:00,axn,33.02
2023-08-14T06:43:00,axn,33.05
2023-08-14T06:44:00,axn,32.96
2023-08-14T06:45:00,axn,33.03
2023-08-14T06:46:00,axn,32.93
2023-08-14T06:47:00,axn,32.81
2023-08-14T06:48:00,axn,33.20
2023-08-14T06:49:00,axn,33.04
2023-08-14T06:50:00,axn,33.04
2023-08-14T06:51:00,axn,33.26
2023-08-14T06:52:00,axn,33.63
2023-08-14T06:53:00,axn,33.48
2023-08-14T06:54:00,axn,33.00
2023-08-14T06:55:00,axn,33.36
2023-08-14T06:56:00,axn,33.25
2023-08-14T06:57:00,axn,32.91
2023-08-14T06:58:00,axn,32.93
2023-08-14T06:59:00,axn,33.29
2023-08-14T07:00:00,axn,33.02
2023-08-14T07:01:00,axn,37.11
2023-08-14T07:02:00,axn,38.46
2023-08-14T07:03:00,axn,39.32
2023-08-14T07:04:00,axn,38.65
2023-08-14T07:05:00,axn,38.39
2023-08-14T07:06:00,axn,38.75
2023-08-14T07:07:00,axn,39.55
2023-08-14T07:08:00,axn,39.54
2023-08-14T07:09:00,axn,39.39
2023-08-14T07:10:00,axn,39.32
2023-08-14T07:11:00,axn,39.29
2023-08-14T07:12:00,axn,39.13
2023-08-14T07:13:00,axn,39.36
2023-08-14T07:14:00,axn,39.45
2023-08-14T07:15:00,axn,39.61
2023-08-14T07:16:00,axn,39.86
2023-08-14T07:17:00,axn,39.08
2023-08-14T07:18:00,axn,39.06
2023-08-14T07:19:00,axn,39.40
2023-08-14T07:20:00,axn,39.49
2023-08-14T07:21:00,axn,39.51
2023-08-14T07:22:00,axn,39.22
2023-08-14T07:23:00,axn,39.56
2023-08-14T07:24:00,axn,40.00
2023-08-14T07:25:00,axn,39.82
2023-08-14T07:26:00,axn,39.42
2023-08-14T07:27:00,axn,39.38
2023-08-14T07:28:00,axn,39.36
2023-08-14T07:29:00,axn,39.12
2023-08-14T07:30:00,axn,39.59
2023-08-14T07:31:00,axn,39.95
2023-08-14T07:32:00,axn,41.14
2023-08-14T07:33:00,axn,41.54
2023-08-14T07:34:00,axn,41.91
2023-08-14T07:35:00,axn,41.81
2023-08-14T07:36:00,axn,42.44
2023-08-14T07:37:00,axn,43.04
2023-08-14T07:38:00,axn,42.35
2023-08-14T07:39:00,axn,43.79
2023-08-14T07:40:00,axn,43.65
2023-08-14T07:41:00,axn,43.74
2023-08-14T07:42:00,axn,43.82
2023-08-14T07:43:00,axn,44.33
2023-08-14T07:44:00,axn,43.69
2023-08-14T07:45:00,axn,44.08
2023-08-14T07:46:00,axn,44.04
2023-08-14T07:47:00,axn,44.08
2023-08-14T07:48:00,axn,44.89
2023-08-14T07:49:00,axn,45.27
2023-08-14T07:50:00,axn,45.34
2023-08-14T07:51:00,axn,45.35
2023-08-14T07:52:00,axn,48.04
2023-08-14T07:53:00,axn,48.11
2023-08-14T07:54:00,axn,47.56
2023-08-14T07:55:00,axn,59.25
2023-08-14T07:56:00,axn,59.44
2023-08-14T07:57:00,axn,59.26
2023-08-14T07:58:00,axn,64.74
2023-08-14T07:59:00,axn,62.49
2023-08-14T08:00:00,axn,59.35
2023-08-14T08:01:00,axn,45.46
2023-08-14T08:02:00,axn,49.24
2023-08-14T08:03:00,axn,49.62
2023-08-14T08:04:00,axn,49.52
2023-08-14T08:05:00,axn,49.90
2023-08-14T08:06:00,axn,50.01
2023-08-14T08:07:00,axn,50.34
2023-08-14T08:08:00,axn,50.68
2023-08-14T08:09:00,axn,50.66
2023-08-14T08:10:00,axn,50.76
2023-08-14T08:11:00,axn,50.58
2023-08-14T08:12:00,axn,50.70
2023-08-14T08:13:00,axn,50.25
2023-08-14T08:14:00,axn,50.41
2023-08-14T08:15:00,axn,50.76
2023-08-14T08:16:00,axn,50.35
2023-08-14T08:17:00,axn,50.24
2023-08-14T08:18:00,axn,50.59
2023-08-14T08:19:00,axn,50.44
2023-08-14T08:20:00,axn,50.06
2023-08-14T08:21:00,axn,50.22
2023-08-14T08:22:00,axn,50.20
2023-08-14T08:23:00,axn,50.40
2023-08-14T08:24:00,axn,50.56
2023-08-14T08:25:00,axn,50.34
2023-08-14T08:26:00,axn,50.84
2023-08-14T08:27:00,axn,50.15
2023-08-14T08:28:00,axn,50.27
2023-08-14T08:29:00,axn,50.25
2023-08-14T08:30:00,axn,50.73
2023-08-14T08:31:00,axn,50.80
2023-08-14T08:32:00,axn,50.76
2023-08-14T08:33:00,axn,50.81
2023-08-14T08:34:00,axn,50.81
2023-08-14T08:35:00,axn,50.65
2023-08-14T08:36:00,axn,50.81
2023-08-14T08:37:00,axn,50.67
2023-08-14T08:38:00,axn,50.65
2023-08-14T08:39:00,axn,50.42
2023-08-14T08:40:00,axn,50.27
2023-08-14T08:41:00,axn,50.43
2023-08-14T08:42:00,axn,50.34
2023-08-14T08:43:00,axn,50.29
2023-08-14T08:44:00,axn,54.41
2023-08-14T08:45:00,axn,50.91
2023-08-14T08:46:00,axn,51.20
2023-08-14T08:47:00,axn,51.52
2023-08-14T08:48:00,axn,51.52
2023-08-14T08:49:00,axn,51.40
2023-08-14T08:50:00,axn,61.64
2023-08-14T08:51:00,axn,61.33
2023-08-14T08:52:00,axn,61.15
2023-08-14T08:53:00,axn,61.41
2023-08-14T08:54:00,axn,51.29
2023-08-14T08:55:00,axn,51.27
2023-08-14T08:56:00,axn,51.09
2023-08-14T08:57:00,axn,51.85
2023-08-14T08:58:00,axn,51.12
2023-08-14T08:59:00,axn,50.89
2023-08-14T09:00:00,axn,50.81
2023-08-14T09:01:00,axn,51.07
2023-08-14T09:02:00,axn,50.96
2023-08-14T09:03:00,axn,51.16
2023-08-14T09:04:00,axn,51.23
2023-08-14T09:05:00,axn,51.04
2023-08-14T09:06:00,axn,51.08
2023-08-14T09:07:00,axn,52.91
2023-08-14T09:08:00,axn,51.77
2023-08-14T09:09:00,axn,51.86
2023-08-14T09:10:00,axn,51.76
2023-08-14T09:11:00,axn,51.76
2023-08-14T09:12:00,axn,51.92
2023-08-14T09:13:00,axn,51.65
2023-08-14T09:14:00,axn,51.47
2023-08-14T09:15:00,axn,52.29
2023-08-14T09:16:00,axn,51.72
2023-08-14T09:17:00,axn,52.43
2023-08-14T09:18:00,axn,51.90
2023-08-14T09:19:00,axn,51.75
2023-08-14T09:20:00,axn,51.76
2023-08-14T09:21:00,axn,52.37
2023-08-14T09:22:00,axn,52.35
2023-08-14T09:23:00,axn,52.93
2023-08-14T09:24:00,axn,52.54
2023-08-14T09:25:00,axn,52.40
2023-08-14T09:26:00,axn,52.69
2023-08-14T09:27:00,axn,54.89
2023-08-14T09:28:00,axn,54.88
2023-08-14T09:29:00,axn,55.04
2023-08-14T09:30:00,axn,52.28
2023-08-14T09:31:00,axn,52.17
2023-08-14T09:32:00,axn,53.06
2023-08-14T09:33:00,axn,52.19
2023-08-14T09:34:00,axn,53.69
2023-08-14T09:35:00,axn,50.83
2023-08-14T09:36:00,axn,50.64
2023-08-14T09:37:00,axn,50.66
2023-08-14T09:38:00,axn,50.67
2023-08-14T09:39:00,axn,50.64
2023-08-14T09:40:00,axn,50.42
2023-08-14T09:41:00,axn,50.40
2023-08-14T09:42:00,axn,50.30
2023-08-14T09:43:00,axn,50.10
2023-08-14T09:44:00,axn,50.34
2023-08-14T09:45:00,axn,50.44
2023-08-14T09:46:00,axn,50.14
2023-08-14T09:47:00,axn,50.56
2023-08-14T09:48:00,axn,49.99
2023-08-14T09:49:00,axn,64.56
2023-08-14T09:50:00,axn,50.20
2023-08-14T09:51:00,axn,53.38
2023-08-14T09:52:00,axn,72.36
2023-08-14T09:53:00,axn,50.00
2023-08-14T09:54:00,axn,50.24
2023-08-14T09:55:00,axn,50.20
2023-08-14T09:56:00,axn,50.86
2023-08-14T09:57:00,axn,50.68
2023-08-14T09:58:00,axn,50.92
2023-08-14T09:59:00,axn,50.45
2023-08-14T10:00:00,axn,50.18
2023-08-14T10:01:00,axn,50.06
2023-08-14T10:02:00,axn,50.94
2023-08-14T10:03:00,axn,49.89
2023-08-14T10:04:00,axn,49.95
2023-08-14T10:05:00,axn,49.87
2023-08-14T10:06:00,axn,50.09
2023-08-14T10:07:00,axn,49.85
2023-08-14T10:08:00,axn,50.07
2023-08-14T10:09:00,axn,50.55
2023-08-14T10:10:00,axn,50.77
2023-08-14T10:11:00,axn,50.64
2023-08-14T10:12:00,axn,50.40
2023-08-14T10:13:00,axn,51.29
2023-08-14T10:14:00,axn,50.97
2023-08-14T10:15:00,axn,50.94
2023-08-14T10:16:00,axn,51.99
2023-08-14T10:17:00,axn,50.81
2023-08-14T10:18:00,axn,51.03
2023-08-14T10:19:00,axn,50.37
2023-08-14T10:20:00,axn,50.09
2023-08-14T10:21:00,axn,50.78
2023-08-14T10:22:00,axn,51.16
2023-08-14T10:23:00,axn,50.83
2023-08-14T10:24:00,axn,50.75
2023-08-14T10:25:00,axn,50.82
2023-08-14T10:26:00,axn,50.98
2023-08-14T10:27:00,axn,51.58
2023-08-14T10:28:00,axn,51.52
2023-08-14T10:29:00,axn,51.14
2023-08-14T10:30:00,axn,50.70
2023-08-14T10:31:00,axn,50.69
2023-08-14T10:32:00,axn,50.65
2023-08-14T10:33:00,axn,51.18
2023-08-14T10:34:00,axn,50.98
2023-08-14T10:35:00,axn,51.09
2023-08-14T10:36:00,axn,50.84
2023-08-14T10:37:00,axn,50.62
2023-08-14T10:38:00,axn,50.94
2023-08-14T10:39:00,axn,50.26
2023-08-14T10:40:00,axn,50.82
2023-08-14T10:41:00,axn,51.02
2023-08-14T10:42:00,axn,50.97
2023-08-14T10:43:00,axn,50.31
2023-08-14T10:44:00,axn,50.21
2023-08-14T10:45:00,axn,49.70
2023-08-14T10:46:00,axn,49.70
2023-08-14T10:47:00,axn,49.41
2023-08-14T10:48:00,axn,49.81
2023-08-14T10:49:00,axn,50.01
2023-08-14T10:50:00,axn,49.32
2023-08-14T10:51:00,axn,49.39
2023-08-14T10:52:00,axn,49.36
2023-08-14T10:53:00,axn,49.64
2023-08-14T10:54:00,axn,49.59
2023-08-14T10:55:00,axn,48.90
2023-08-14T10:56:00,axn,48.79
2023-08-14T10:57:00,axn,49.40
2023-08-14T10:58:00,axn,49.41
2023-08-14T10:59:00,axn,64.51
2023-08-14T11:00:00,axn,51.81
2023-08-14T11:01:00,axn,53.08
2023-08-14T11:02:00,axn,52.93
2023-08-14T11:03:00,axn,53.15
2023-08-14T11:04:00,axn,51.47
2023-08-14T11:05:00,axn,50.54
2023-08-14T11:06:00,axn,50.98
2023-08-14T11:07:00,axn,50.79
2023-08-14T11:08:00,axn,50.78
2023-08-14T11:09:00,axn,51.48
2023-08-14T11:10:00,axn,51.03
2023-08-14T11:11:00,axn,51.62
2023-08-14T11:12:00,axn,51.64
2023-08-14T11:13:00,axn,51.56
2023-08-14T11:14:00,axn,51.51
2023-08-14T11:15:00,axn,54.31
2023-08-14T11:16:00,axn,50.81
2023-08-14T11:17:00,axn,50.47
2023-08-14T11:18:00,axn,50.61
2023-08-14T11:19:00,axn,51.00
2023-08-14T11:20:00,axn,50.25
2023-08-14T11:21:00,axn,50.45
2023-08-14T11:22:00,axn,50.03
2023-08-14T11:23:00,axn,50.12
2023-08-14T11:24:00,axn,67.62
2023-08-14T11:25:00,axn,50.05
2023-08-14T11:26:00,axn,50.77
2023-08-14T11:27:00,axn,50.98
2023-08-14T11:28:00,axn,52.01
2023-08-14T11:29:00,axn,50.78
2023-08-14T11:30:00,axn,50.71
2023-08-14T11:31:00,axn,50.72
2023-08-14T11:32:00,axn,50.99
2023-08-14T11:33:00,axn,50.99
2023-08-14T11:34:00,axn,51.22
2023-08-14T11:35:00,axn,51.06
2023-08-14T11:36:00,axn,51.59
2023-08-14T11:37:00,axn,51.00
2023-08-14T11:38:00,axn,51.17
2023-08-14T11:39:00,axn,50.48
2023-08-14T11:40:00,axn,50.56
2023-08-14T11:41:00,axn,50.34
2023-08-14T11:42:00,axn,49.77
2023-08-14T11:43:00,axn,67.63
2023-08-14T11:44:00,axn,50.69
2023-08-14T11:45:00,axn,50.64
2023-08-14T11:46:00,axn,64.71
2023-08-14T11:47:00,axn,63.95
2023-08-14T11:48:00,axn,63.85
2023-08-14T11:49:00,axn,63.70
2023-08-14T11:50:00,axn,63.92
2023-08-14T11:51:00,axn,65.10
2023-08-14T11:52:00,axn,49.72
2023-08-14T11:53:00,axn,49.86
2023-08-14T11:54:00,axn,54.24
2023-08-14T11:55:00,axn,54.14
2023-08-14T11:56:00,axn,54.40
2023-08-14T11:57:00,axn,51.02
2023-08-14T11:58:00,axn,51.05
2023-08-14T11:59:00,axn,51.57
2023-08-14T12:00:00,axn,50.21
2023-08-14T12:01:00,axn,50.31
2023-08-14T12:02:00,axn,50.57
2023-08-14T12:03:00,axn,50.29
2023-08-14T12:04:00,axn,51.09
2023-08-14T12:05:00,axn,50.48
2023-08-14T12:06:00,axn,50.84
2023-08-14T12:07:00,axn,50.81
2023-08-14T12:08:00,axn,53.59
2023-08-14T12:09:00,axn,53.64
2023-08-14T12:10:00,axn,53.89
2023-08-14T12:11:00,axn,53.74
2023-08-14T12:12:00,axn,51.14
2023-08-14T12:13:00,axn,51.61
2023-08-14T12:14:00,axn,52.84
2023-08-14T12:15:00,axn,51.21
2023-08-14T12:16:00,axn,50.22
2023-08-14T12:17:00,axn,50.23
2023-08-14T12:18:00,axn,50.17
2023-08-14T12:19:00,axn,49.64
2023-08-14T12:20:00,axn,49.43
2023-08-14T12:21:00,axn,49.32
2023-08-14T12:22:00,axn,49.47
2023-08-14T12:23:00,axn,49.27
2023-08-14T12:24:00,axn,48.84
2023-08-14T12:25:00,axn,48.79
2023-08-14T12:26:00,axn,48.94
2023-08-14T12:27:00,axn,48.95
2023-08-14T12:28:00,axn,48.96
2023-08-14T12:29:00,axn,49.16
2023-08-14T12:30:00,axn,48.83
2023-08-14T12:31:00,axn,49.06
2023-08-14T12:32:00,axn,49.14
2023-08-14T12:33:00,axn,49.35
2023-08-14T12:34:00,axn,49.45
2023-08-14T12:35:00,axn,48.94
2023-08-14T12:36:00,axn,54.63
2023-08-14T12:37:00,axn,54.18
2023-08-14T12:38:00,axn,54.05
2023-08-14T12:39:00,axn,54.24
2023-08-14T12:40:00,axn,48.56
2023-08-14T12:41:00,axn,48.23
2023-08-14T12:42:00,axn,47.88
2023-08-14T12:43:00,axn,47.76
2023-08-14T12:44:00,axn,47.61
2023-08-14T12:45:00,axn,47.83
2023-08-14T12:46:00,axn,48.02
2023-08-14T12:47:00,axn,48.49
2023-08-14T12:48:00,axn,46.99
2023-08-14T12:49:00,axn,46.77
2023-08-14T12:50:00,axn,46.84
2023-08-14T12:51:00,axn,47.02
2023-08-14T12:52:00,axn,47.19
2023-08-14T12:53:00,axn,47.47
2023-08-14T12:54:00,axn,46.91
2023-08-14T12:55:00,axn,46.17
2023-08-14T12:56:00,axn,46.02
2023-08-14T12:57:00,axn,46.11
2023-08-14T12:58:00,axn,47.23
2023-08-14T12:59:00,axn,46.86
2023-08-14T13:00:00,axn,46.73
2023-08-14T13:01:00,axn,46.70
2023-08-14T13:02:00,axn,47.43
2023-08-14T13:03:00,axn,46.98
2023-08-14T13:04:00,axn,46.69
2023-08-14T13:05:00,axn,47.19
2023-08-14T13:06:00,axn,46.37
2023-08-14T13:07:00,axn,46.50
2023-08-14T13:08:00,axn,45.90
2023-08-14T13:09:00,axn,45.38
2023-08-14T13:10:00,axn,44.98
2023-08-14T13:11:00,axn,44.61
2023-08-14T13:12:00,axn,44.77
2023-08-14T13:13:00,axn,44.63
2023-08-14T13:14:00,axn,44.26
2023-08-14T13:15:00,axn,44.50
2023-08-14T13:16:00,axn,44.33
2023-08-14T13:17:00,axn,47.30
2023-08-14T13:18:00,axn,47.19